カタログに戻る

METEOR 1-19

運用中気象PO
NORAD 7490·PAYLOAD·🇷🇺 Russia

打ち上げ Oct 28, 1974 から Plesetsk Cosmodrome

Loading…

次のパス (今後24時間)

TLE

最新Source: Space-Track

元期: Sep 14, 2026, 08:36 UTC

1 07490U 74083A   26257.35885543  .00000035  00000-0  12331-4 0  9997
2 07490  81.1873  50.4347 0030054 188.9319 171.1322 14.10586727667450

AllMySatでMETEOR 1-19をリアルタイム追跡

Download on the App Store